This is the latest recevied weather packets stored in our database for station/object CE3MXM-12. If no packets are shown the sender has not sent any weather packets the latest 10 day(s).
| Time | Temp. | Humidity | Pressure | Rain* | Wind** | Luminosity | Snow |
|---|---|---|---|---|---|---|---|
| 1777985702 | 15.56° C | 65% | 1013.1 hPa | - | - | - | - |
| 1777985402 | 15.56° C | 66% | 1012.8 hPa | - | - | - | - |
| 1777985101 | 15° C | 66% | 1012.8 hPa | - | - | - | - |
| 1777984801 | 14.44° C | 68% | 1013 hPa | - | - | - | - |
| 1777984501 | 14.44° C | 70% | 1012.9 hPa | - | - | - | - |
| 1777984201 | 13.89° C | 71% | 1013 hPa | - | - | - | - |
| 1777983901 | 13.33° C | 73% | 1012.9 hPa | - | - | - | - |
| 1777983601 | 13.33° C | 77% | 1013.2 hPa | - | - | - | - |
| 1777983301 | 13.33° C | 78% | 1013.1 hPa | - | - | - | - |
| 1777983001 | 12.78° C | 79% | 1013.3 hPa | - | - | - | - |
| 1777982701 | 12.78° C | 81% | 1013.4 hPa | - | - | - | - |
| 1777982400 | 12.78° C | 81% | 1013.3 hPa | - | - | - | - |
| 1777982100 | 12.78° C | 82% | 1013 hPa | - | - | - | - |
| 1777981800 | 12.22° C | 83% | 1013.3 hPa | - | - | - | - |
| 1777981500 | 12.22° C | 83% | 1013.2 hPa | - | - | - | - |
| 1777981200 | 12.22° C | 83% | 1013.3 hPa | - | - | - | - |
| 1777980901 | 12.22° C | 83% | 1013 hPa | - | - | - | - |
| 1777980600 | 12.22° C | 83% | 1012.8 hPa | - | - | - | - |
| 1777980300 | 12.22° C | 83% | 1013.1 hPa | - | - | - | - |
| 1777980000 | 12.22° C | 83% | 1013.5 hPa | - | - | - | - |
| 1777979700 | 12.22° C | 82% | 1012.7 hPa | - | - | - | - |
| 1777979400 | 12.22° C | 81% | 1013.1 hPa | - | - | - | - |
| 1777979099 | 12.22° C | 82% | 1013.4 hPa | - | - | - | - |
| 1777978799 | 12.22° C | 82% | 1013.6 hPa | - | - | - | - |
| 1777978499 | 12.78° C | 81% | 1013.5 hPa | - | - | - | - |
* Rain since midnight (hover to see other rain measurements)
** Current wind speed in m/s (hover to see current wind gust speed)